N5KR Weather Reports


Display with metric or nautical units.
time (UTC)temp
F
wind
direction
speed
MPH
gust
MPH
rain 1hr
in
rain 24hr
in
rain mn
in
humidity
%
barometer
mb
20260506025006 69 347 7.0 14.0 0.00 0.00 0.00 73 1008.5
20260506024506 69 346 6.0 13.0 0.00 0.00 0.00 72 1008.3
20260506024006 69 345 3.0 10.0 0.00 0.00 0.00 73 1008.1
20260506023506 69 350 7.0 13.0 0.00 0.00 0.00 72 1007.9
20260506022506 70 6 6.0 13.0 0.00 0.00 0.00 73 1007.5
20260506022006 70 6 4.0 18.0 0.00 0.00 0.00 72 1007.7
20260506021505 70 18 6.0 18.0 0.00 0.00 0.00 72 1007.5
20260506021006 71 353 3.0 13.0 0.00 0.00 0.00 72 1007.3
20260506020506 71 348 5.0 13.0 0.00 0.00 0.00 71 1007.0
20260506020006 71 353 3.0 10.0 0.00 0.00 0.00 71 1007.1
20260506015506 72 1 6.0 14.0 0.00 0.00 0.00 70 1007.2
20260506015006 73 353 3.0 10.0 0.00 0.00 0.00 69 1007.0
20260506014506 73 348 5.0 12.0 0.00 0.00 0.00 69 1007.0
20260506014005 73 350 2.0 7.0 0.00 0.00 0.00 68 1006.9
20260506013006 73 15 4.0 12.0 0.00 0.00 0.00 68 1007.0
20260506012006 73 22 3.0 6.0 0.00 0.00 0.00 67 1006.7
20260506011506 73 56 3.0 10.0 0.00 0.00 0.00 67 1006.6
20260506011005 74 351 6.0 13.0 0.00 0.00 0.00 67 1006.4
20260506010006 74 340 6.0 13.0 0.00 0.00 0.00 67 1006.2
20260506005506 74 336 6.0 12.0 0.00 0.00 0.00 67 1005.9
20260506005006 74 16 3.0 9.0 0.00 0.00 0.00 67 1006.2
20260506004505 74 345 6.0 12.0 0.00 0.00 0.00 67 1006.4
20260506004006 74 350 6.0 14.0 0.00 0.00 0.00 66 1006.3
20260506003506 75 15 6.0 13.0 0.00 0.00 0.00 66 1006.3
20260506003005 75 10 4.0 13.0 0.00 0.00 0.00 66 1006.2
20260506002506 75 4 5.0 10.0 0.00 0.00 0.00 66 1006.1
20260506002006 75 10 7.0 14.0 0.00 0.00 0.00 65 1006.0
20260506001505 76 357 7.0 14.0 0.00 0.00 0.00 65 1006.1
20260506001005 77 6 9.0 13.0 0.00 0.00 0.00 64 1005.9
20260506000505 78 350 7.0 16.0 0.00 0.00 0.00 63 1005.5
20260506000006 78 342 7.0 15.0 0.00 0.00 0.00 62 1005.2
20260505235506 79 353 5.0 13.0 0.00 0.00 0.00 62 1005.2
20260505234506 80 302 3.0 13.0 0.00 0.00 0.00 61 1005.4
20260505234005 80 335 12.0 17.0 0.00 0.00 0.00 60 1005.4
20260505233505 81 332 6.0 17.0 0.00 0.00 0.00 59 1005.4
20260505233006 81 348 9.0 16.0 0.00 0.00 0.00 59 1005.3
20260505232505 82 336 7.0 16.0 0.00 0.00 0.00 58 1005.1
20260505232006 84 338 10.0 17.0 0.00 0.00 0.00 56 1004.9
20260505231506 84 333 5.0 14.0 0.00 0.00 0.00 53 1004.8
20260505231006 85 340 6.0 13.0 0.00 0.00 0.00 51 1004.8
20260505230506 85 354 6.0 15.0 0.00 0.00 0.00 50 1004.6
20260505230006 86 346 7.0 18.0 0.00 0.00 0.00 49 1004.4
20260505225506 86 357 7.0 17.0 0.00 0.00 0.00 47 1004.4
20260505225005 87 347 5.0 15.0 0.00 0.00 0.00 47 1004.4
20260505224505 87 344 5.0 14.0 0.00 0.00 0.00 46 1004.5
20260505224006 88 334 6.0 13.0 0.00 0.00 0.00 46 1004.3
20260505223505 89 269 6.0 9.0 0.00 0.00 0.00 50 1004.0
20260505223005 89 257 2.0 5.0 0.00 0.00 0.00 50 1004.0
20260505222505 89 268 4.0 8.0 0.00 0.00 0.00 51 1004.0
20260505222006 89 260 4.0 12.0 0.00 0.00 0.00 50 1003.9
20260505221505 90 204 4.0 8.0 0.00 0.00 0.00 50 1003.9
20260505221005 90 262 3.0 9.0 0.00 0.00 0.00 51 1003.9
20260505220506 90 180 3.0 10.0 0.00 0.00 0.00 50 1004.1
20260505220005 89 254 7.0 13.0 0.00 0.00 0.00 52 1004.1
20260505215505 90 260 7.0 12.0 0.00 0.00 0.00 51 1004.1
20260505215005 90 199 4.0 9.0 0.00 0.00 0.00 51 1004.1
20260505214505 89 181 3.0 9.0 0.00 0.00 0.00 52 1004.1
20260505214006 89 263 3.0 7.0 0.00 0.00 0.00 54 1004.1
20260505213505 90 182 3.0 10.0 0.00 0.00 0.00 52 1004.2
20260505213005 90 228 6.0 13.0 0.00 0.00 0.00 53 1004.4
20260505212506 90 201 4.0 10.0 0.00 0.00 0.00 52 1004.3
20260505212006 89 221 4.0 9.0 0.00 0.00 0.00 53 1004.4
20260505211005 90 254 5.0 12.0 0.00 0.00 0.00 52 1004.6
20260505210006 89 253 5.0 13.0 0.00 0.00 0.00 54 1004.6
20260505205505 89 246 7.0 10.0 0.00 0.00 0.00 52 1004.6
20260505205005 89 213 5.0 13.0 0.00 0.00 0.00 53 1004.7
20260505204506 89 236 5.0 9.0 0.00 0.00 0.00 53 1004.7
20260505204006 89 218 4.0 12.0 0.00 0.00 0.00 53 1004.9
20260505203505 90 278 6.0 17.0 0.00 0.00 0.00 52 1005.1
20260505203005 89 246 8.0 18.0 0.00 0.00 0.00 54 1005.0
20260505202505 89 179 4.0 13.0 0.00 0.00 0.00 55 1005.0
20260505202005 89 260 6.0 15.0 0.00 0.00 0.00 57 1005.0
20260505201506 88 219 8.0 17.0 0.00 0.00 0.00 57 1005.1
20260505201005 89 184 3.0 13.0 0.00 0.00 0.00 56 1005.0
20260505200505 89 226 5.0 10.0 0.00 0.00 0.00 56 1005.0
20260505200005 89 178 5.0 12.0 0.00 0.00 0.00 58 1005.0
20260505195505 89 198 7.0 13.0 0.00 0.00 0.00 56 1005.1
20260505195005 88 233 5.0 14.0 0.00 0.00 0.00 58 1005.2
20260505194505 88 268 7.0 20.0 0.00 0.00 0.00 57 1005.2
20260505193505 86 195 10.0 18.0 0.00 0.00 0.00 60 1005.1
20260505193005 87 193 7.0 13.0 0.00 0.00 0.00 60 1005.1
20260505192505 87 197 6.0 13.0 0.00 0.00 0.00 60 1005.3
20260505192005 87 190 6.0 16.0 0.00 0.00 0.00 60 1005.3
20260505191505 86 209 6.0 15.0 0.00 0.00 0.00 62 1005.2
20260505191005 86 196 8.0 15.0 0.00 0.00 0.00 62 1005.1
20260505185504 85 231 5.0 13.0 0.00 0.00 0.00 63 1005.3
20260505185005 85 196 7.0 15.0 0.00 0.00 0.00 63 1005.3
20260505184505 84 212 9.0 14.0 0.00 0.00 0.00 63 1005.3
20260505184005 84 199 5.0 10.0 0.00 0.00 0.00 64 1005.4
20260505183505 84 19 3.0 15.0 0.00 0.00 0.00 64 1005.4
20260505183005 84 218 7.0 17.0 0.00 0.00 0.00 63 1005.4
20260505182505 85 202 4.0 12.0 0.00 0.00 0.00 64 1005.3
20260505182004 84 189 7.0 13.0 0.00 0.00 0.00 64 1005.4
20260505181505 84 220 4.0 12.0 0.00 0.00 0.00 63 1005.5
20260505181005 84 231 6.0 14.0 0.00 0.00 0.00 64 1005.5
20260505180505 84 255 7.0 14.0 0.00 0.00 0.00 64 1005.4
20260505175505 84 193 7.0 17.0 0.00 0.00 0.00 66 1005.3
20260505175005 84 209 7.0 17.0 0.00 0.00 0.00 66 1005.4
20260505174505 83 194 9.0 18.0 0.00 0.00 0.00 66 1005.5
20260505174005 83 210 6.0 16.0 0.00 0.00 0.00 67 1005.5
20260505173505 82 183 6.0 13.0 0.00 0.00 0.00 67 1005.5
20260505172505 82 231 6.0 13.0 0.00 0.00 0.00 68 1005.6
20260505172005 82 225 5.0 14.0 0.00 0.00 0.00 68 1005.6
20260505171505 81 194 6.0 13.0 0.00 0.00 0.00 69 1005.6
20260505171004 80 206 9.0 20.0 0.00 0.00 0.00 69 1005.6
20260505170505 81 205 9.0 15.0 0.00 0.00 0.00 69 1005.6
20260505170005 81 195 8.0 16.0 0.00 0.00 0.00 69 1005.7
20260505165005 80 189 7.0 21.0 0.00 0.00 0.00 70 1005.6
20260505164505 80 223 7.0 16.0 0.00 0.00 0.00 70 1005.6
20260505164005 79 215 6.0 12.0 0.00 0.00 0.00 71 1005.5
20260505163504 79 223 5.0 18.0 0.00 0.00 0.00 71 1005.5
20260505163005 79 210 10.0 18.0 0.00 0.00 0.00 71 1005.4
20260505162505 79 213 7.0 16.0 0.00 0.00 0.00 71 1005.4
20260505162004 79 199 9.0 16.0 0.00 0.00 0.00 72 1005.4
20260505161505 79 211 6.0 13.0 0.00 0.00 0.00 71 1005.4
20260505161005 79 224 7.0 13.0 0.00 0.00 0.00 72 1005.4
20260505160505 78 213 7.0 13.0 0.00 0.00 0.00 73 1005.3
20260505153005 77 214 9.0 17.0 0.00 0.00 0.00 74 1005.1
20260505152504 78 194 10.0 22.0 0.00 0.00 0.00 74 1005.2
20260505152005 77 201 5.0 25.0 0.00 0.00 0.00 74 1005.4
20260505151504 77 204 5.0 13.0 0.00 0.00 0.00 76 1005.4
20260505151005 76 183 10.0 23.0 0.00 0.00 0.00 76 1005.5
20260505150504 75 212 10.0 20.0 0.00 0.00 0.00 77 1005.4
20260505140505 74 185 8.0 22.0 0.00 0.00 0.00 79 1005.3
20260505125005 72 197 6.0 13.0 0.00 0.00 0.00 82 1004.8
20260505123504 71 164 6.0 14.0 0.00 0.00 0.00 83 1004.5
20260505123004 71 193 6.0 14.0 0.00 0.00 0.00 83 1004.4
20260505122504 71 196 7.0 17.0 0.00 0.00 0.00 83 1004.5
20260505122004 71 202 7.0 16.0 0.00 0.00 0.00 83 1004.4
20260505121504 71 193 7.0 16.0 0.00 0.00 0.00 83 1004.4
20260505121004 71 197 9.0 16.0 0.00 0.00 0.00 83 1004.4
20260505120504 71 203 6.0 15.0 0.00 0.00 0.00 82 1004.4
20260505120005 71 205 7.0 16.0 0.00 0.00 0.00 82 1004.2
20260505115504 71 177 7.0 18.0 0.00 0.00 0.00 82 1004.2
20260505115004 71 215 8.0 20.0 0.00 0.00 0.00 82 1004.1
20260505114504 71 189 5.0 14.0 0.00 0.00 0.00 82 1004.2
20260505114004 71 193 7.0 17.0 0.00 0.00 0.00 82 1004.3
20260505113505 71 192 5.0 12.0 0.00 0.00 0.00 82 1004.2
20260505113004 72 202 6.0 23.0 0.00 0.00 0.00 82 1004.1
20260505112504 71 179 7.0 15.0 0.00 0.00 0.00 82 1004.2
20260505112004 71 233 8.0 17.0 0.00 0.00 0.00 82 1004.1
20260505111504 71 190 6.0 17.0 0.00 0.00 0.00 82 1004.1
20260505111004 71 178 7.0 26.0 0.00 0.00 0.00 82 1004.4
20260505110504 71 239 3.0 17.0 0.00 0.00 0.00 82 1004.3
20260505102004 71 205 8.0 15.0 0.00 0.00 0.00 82 1004.3
20260505101504 71 223 7.0 14.0 0.00 0.00 0.00 82 1004.3
20260505101004 71 187 8.0 21.0 0.00 0.00 0.00 82 1004.2
20260505100504 71 202 6.0 14.0 0.00 0.00 0.00 82 1004.3
20260505095504 71 187 12.0 20.0 0.00 0.00 0.00 82 1004.3
20260505095004 71 200 7.0 16.0 0.00 0.00 0.00 82 1004.5
20260505094504 71 195 8.0 16.0 0.00 0.00 0.00 82 1004.4
20260505093504 71 200 4.0 16.0 0.00 0.00 0.00 82 1004.6
20260505093004 71 203 6.0 15.0 0.00 0.00 0.00 82 1004.6
20260505092504 71 195 7.0 14.0 0.00 0.00 0.00 82 1004.6
20260505092004 71 189 7.0 15.0 0.00 0.00 0.00 82 1004.7
20260505091504 71 204 5.0 12.0 0.00 0.00 0.00 82 1004.7
20260505091004 71 198 7.0 13.0 0.00 0.00 0.00 82 1004.8
20260505090504 71 217 8.0 15.0 0.00 0.00 0.00 82 1004.7
20260505090004 71 208 7.0 17.0 0.00 0.00 0.00 82 1004.7
20260505085503 71 192 7.0 13.0 0.00 0.00 0.00 82 1004.7
20260505085003 71 204 8.0 21.0 0.00 0.00 0.00 82 1004.7
20260505084504 71 190 6.0 20.0 0.00 0.00 0.00 82 1004.7
20260505084003 71 205 7.0 16.0 0.00 0.00 0.00 82 1004.8
20260505083504 71 199 7.0 16.0 0.00 0.00 0.00 81 1004.8
20260505083004 71 177 9.0 17.0 0.00 0.00 0.00 81 1004.8
20260505082504 71 183 9.0 21.0 0.00 0.00 0.00 81 1004.8
20260505081503 71 188 7.0 14.0 0.00 0.00 0.00 81 1004.8
20260505081004 71 181 7.0 14.0 0.00 0.00 0.00 81 1004.9
20260505080504 71 171 7.0 13.0 0.00 0.00 0.00 80 1004.8
20260505075506 72 181 6.0 20.0 0.00 0.00 0.00 80 1005.1
20260505075007 72 186 10.0 16.0 0.00 0.00 0.00 79 1005.1
20260505074507 72 191 8.0 20.0 0.00 0.00 0.00 79 1005.1
20260505074007 72 200 6.0 14.0 0.00 0.00 0.00 79 1005.3
20260505073507 72 184 9.0 17.0 0.00 0.00 0.00 79 1005.3
20260505073006 72 189 7.0 17.0 0.00 0.00 0.00 79 1005.5
20260505072507 72 199 10.0 20.0 0.00 0.00 0.00 78 1005.7
20260505072006 72 195 5.0 16.0 0.00 0.00 0.00 78 1005.7
20260505071507 72 198 5.0 13.0 0.00 0.00 0.00 78 1005.7
20260505071006 72 193 6.0 24.0 0.00 0.00 0.00 77 1005.7
20260505070507 72 197 9.0 16.0 0.00 0.00 0.00 77 1005.9
20260505065506 73 197 6.0 10.0 0.00 0.00 0.00 77 1005.8
20260505064506 73 192 8.0 15.0 0.00 0.00 0.00 76 1006.0
20260505064006 73 192 7.0 17.0 0.00 0.00 0.00 76 1006.1
20260505063506 73 184 10.0 15.0 0.00 0.00 0.00 76 1006.1
20260505062506 73 194 7.0 15.0 0.00 0.00 0.00 75 1006.1
20260505062007 73 186 7.0 16.0 0.00 0.00 0.00 75 1006.1
20260505061507 73 195 6.0 13.0 0.00 0.00 0.00 75 1006.1
20260505061007 73 190 6.0 15.0 0.00 0.00 0.00 75 1006.1
20260505060507 73 189 8.0 18.0 0.00 0.00 0.00 75 1006.0
20260505055506 73 178 7.0 20.0 0.00 0.00 0.00 75 1006.1
20260505054506 73 184 11.0 21.0 0.00 0.00 0.00 74 1006.3
20260505054007 73 179 9.0 15.0 0.00 0.00 0.00 74 1006.3
20260505053506 73 180 10.0 21.0 0.00 0.00 0.00 74 1006.3
20260505053007 73 185 7.0 17.0 0.00 0.00 0.00 73 1006.4
20260505052507 73 174 9.0 15.0 0.00 0.00 0.00 73 1006.5
20260505051507 73 171 8.0 15.0 0.00 0.00 0.00 73 1006.6
20260505051006 73 188 8.0 20.0 0.00 0.00 0.00 73 1006.6
20260505050506 73 183 7.0 15.0 0.00 0.00 0.00 72 1006.5
20260505041506 74 173 11.0 17.0 0.00 0.00 0.00 71 1006.8
20260505041007 74 187 8.0 15.0 0.00 0.00 0.00 70 1006.8
20260505040507 74 172 11.0 18.0 0.00 0.00 0.00 70 1006.8
20260505040006 74 181 9.0 18.0 0.00 0.00 0.00 70 1006.8
20260505035006 74 180 10.0 17.0 0.00 0.00 0.00 70 1006.7
20260505034506 74 183 10.0 16.0 0.00 0.00 0.00 70 1006.6
20260505034006 74 177 11.0 25.0 0.00 0.00 0.00 69 1006.8
20260505033506 74 174 14.0 22.0 0.00 0.00 0.00 69 1006.7
20260505033006 74 175 11.0 17.0 0.00 0.00 0.00 69 1006.8
20260505032006 74 193 9.0 20.0 0.00 0.00 0.00 69 1006.8
20260505031506 74 182 11.0 23.0 0.00 0.00 0.00 69 1006.9
20260505031006 75 167 10.0 20.0 0.00 0.00 0.00 68 1006.8
20260505030506 75 184 11.0 17.0 0.00 0.00 0.00 68 1006.7
20260505030006 75 187 10.0 16.0 0.00 0.00 0.00 68 1006.9